NOAA 16 DEB, 41232

Orbit data source: Space-Track

NOAA 16 DEB, 41232 is space debris in SSO originally from a launch on Thu, 21 Sep 2000 UTC launched from the Air Force Western Test Range (AFWTR). Debris objects in space refer to the collection of defunct objects orbiting the Earth. Examples of debris include non-operational satellites, rocket bodies, and fragments generated from explosions, collisions, or faulty payload assembly.

Loading next visibility...
Identifier
41232, 2000-055EM
Orbit
SSO
Country
Flag of USUS
Related business
Manufacturer
Unknown
Mission
Spacecraft
Bus & Motor
Unknown
Mass
Unknown
Launch date (UTC)
2000-09-21 (26 years ago)
Launch vehicle
Unknown
Launch site
Air Force Western Test Range (AFWTR)
Object type
Payload
Rocket body
Debris
Shape & HBR
Unknown shape, 0.1 m
Radar Cross Section
Medium (>0.1 m² and <1 m²)

Expand to show TLE details & history
Last TLE update: 1 day ago

TLE from 1 day ago
0 NOAA 16 DEB
1 41232U 00055EM  26171.45553354  .00003794  00000-0  16342-2 0  9994
2 41232  98.8764 247.6763 0037348 238.7926 120.9590 14.24802562540406
Epoch: 2026-06-20T10:55Z
TLE epoch observation values (Epoch: 2026-06-20T10:55:58.097Z)
Latitude
-0.00005°
Longitude
175.01433°
Altitude
825.957 km
Speed
7.433 km/s
True Right ascension
16h 30m 42s
True Declination
0° 00' 00"
Sunlit
Object was in full shadow at epoch
Visualization orbit readout
Latitude
Unknown
Longitude
Unknown
Altitude
Unknown
Speed
Unknown
Apparent Right ascension
Unknown
Apparent Declination
Unknown
Sunlit
N/A
Visualization observer readout
Local Sidereal Time
00:26:15
Azimuth
Unknown
Elevation
Unknown
Doppler factor
Unknown
Orbital elements
Apogee altitude
833.149 km
Perigee altitude
779.484 km
Semi-major axis
7,184.454 km
Eccentricity
0.00373
Inclination
98.8764°
RAAN
247.6763°
Arg. of periapsis
238.7926°
True anomaly
121.32512°
Mean anomaly
120.959°
Eccentric anomaly
121.14215°
Mean motion
3.56412 °/min
Orbital period
101.01 mins
BSTAR
0.0016342
Loading maneuver chart data...
Computing Atmospheric mass density...
Loading historical data...
Loading historical data...
Loading historical data...
Loading historical data...
Loading historical data...
Loading historical data...
Loading historical data...

Documentation

Showing up to 5 results
|